User: anonymous   Login
Location: Vancouver
(49.2500°N, 123.1330°W)
Time: 00:51:59
(UTC-07:00)
Language:

Cosmos 1939 Rocket - Orbit

View from above orbital plane
View from above orbital plane
View from above satellite
View from above satellite

Ground track
Ground track

The orbit data is extracted from the following two-line orbital elements,

1 19046U 88032B   15241.68929888  .00001422  00000-0  11283-3 0  9999
2 19046 097.6309 292.9084 0043088 053.5827 306.9359 15.01403101473952
Epoch (UTC): 29 August 2015 16:32:35
Eccentricity: 0.0043088
inclination: 97.6309°
perigee height: 532 km
apogee height: 592 km
right ascension of ascending node: 292.9084°
argument of perigee: 53.5827°
revolutions per day: 15.01403101
mean anomaly at epoch: 306.9359°
orbit number at epoch: 47395

The dashed part of the orbit path shows where the satellite is in the earth's shadow,  

DLR